When you browse on this site, cookies collect data to enhance your experience and personalize the content and advertising you see.
Visit our Privacy Policy to learn more. By continuing to use the site, you agree to this use of cookies and data.
  • Em Portugal
  • Lista de países
  • Para 7 dias
  • Temperatura da água
  • Mapas de satélite
  • Mapa do tempo
  • Widgets de tempo
  • user-avatar
    Iniciar Sessão

    Previsão horária em Doregowice

    Hoje, 26 Junho, Quarta-feira

    Tempo Temperatura Precipitação Vento Pressão Humidade
    00:00 +23°C° 0 mm 2 m/s 753 mmHg 91%
    01:00 +21°C° 0 mm 2 m/s 753 mmHg 88%
    02:00 +21°C° 0 mm 2 m/s 753 mmHg 89%
    03:00 +21°C° 0 mm 2 m/s 752 mmHg 90%
    04:00 +21°C° 0 mm 2 m/s 752 mmHg 91%
    05:00 +24°C° 0 mm 2 m/s 752 mmHg 85%
    06:00 +25°C° 0 mm 2 m/s 752 mmHg 80%
    07:00 +27°C° 0 mm 3 m/s 752 mmHg 75%
    08:00 +29°C° 0 mm 3 m/s 752 mmHg 70%
    09:00 +30°C° 0 mm 4 m/s 752 mmHg 65%
    10:00 +33°C° 0 mm 4 m/s 751 mmHg 59%
    11:00 +34°C° 0 mm 5 m/s 751 mmHg 57%
    12:00 +34°C° 0 mm 5 m/s 751 mmHg 54%
    13:00 +35°C° 0 mm 5 m/s 751 mmHg 51%
    14:00 +35°C° 0.2 mm 5 m/s 750 mmHg 52%
    15:00 +35°C° 0.2 mm 5 m/s 750 mmHg 52%
    16:00 +34°C° 0.2 mm 5 m/s 749 mmHg 53%
    17:00 +33°C° 0.1 mm 5 m/s 749 mmHg 60%
    18:00 +30°C° 0.1 mm 5 m/s 749 mmHg 66%
    19:00 +28°C° 0.1 mm 5 m/s 749 mmHg 73%
    20:00 +26°C° 0 mm 5 m/s 749 mmHg 78%
    21:00 +23°C° 0 mm 5 m/s 749 mmHg 83%
    22:00 +22°C° 0 mm 5 m/s 749 mmHg 88%
    23:00 +20°C° 0 mm 5 m/s 749 mmHg 87%

    Amanhã, 27 Junho, Quinta-feira

    Tempo Temperatura Precipitação Vento Pressão Humidade
    00:00 +19°C° 0 mm 5 m/s 749 mmHg 86%
    01:00 +17°C° 0 mm 5 m/s 749 mmHg 85%
    02:00 +17°C° 0 mm 5 m/s 749 mmHg 83%
    03:00 +17°C° 0 mm 6 m/s 749 mmHg 80%
    04:00 +16°C° 0 mm 7 m/s 749 mmHg 78%
    05:00 +16°C° 0 mm 7 m/s 749 mmHg 77%
    06:00 +16°C° 0 mm 7 m/s 749 mmHg 75%
    07:00 +15°C° 0 mm 6 m/s 749 mmHg 74%
    08:00 +16°C° 0 mm 6 m/s 750 mmHg 72%
    09:00 +17°C° 0 mm 6 m/s 750 mmHg 70%
    10:00 +19°C° 0 mm 6 m/s 750 mmHg 68%
    11:00 +19°C° 0 mm 6 m/s 750 mmHg 67%
    12:00 +20°C° 0 mm 6 m/s 750 mmHg 66%
    13:00 +21°C° 0 mm 6 m/s 751 mmHg 65%
    14:00 +20°C° 0 mm 6 m/s 751 mmHg 67%
    15:00 +20°C° 0 mm 6 m/s 751 mmHg 68%
    16:00 +20°C° 0 mm 6 m/s 751 mmHg 70%
    17:00 +19°C° 0 mm 5 m/s 751 mmHg 74%
    18:00 +19°C° 0 mm 5 m/s 751 mmHg 77%
    19:00 +18°C° 0 mm 4 m/s 751 mmHg 81%
    20:00 +17°C° 0 mm 3 m/s 751 mmHg 86%
    21:00 +16°C° 0 mm 3 m/s 752 mmHg 91%
    22:00 +14°C° 0 mm 2 m/s 752 mmHg 96%
    23:00 +14°C° 0 mm 2 m/s 752 mmHg 95%

    Depois de amanhã, 28 Junho, Sexta-feira

    Tempo Temperatura Precipitação Vento Pressão Humidade
    00:00 +14°C° 0 mm 2 m/s 752 mmHg 94%
    01:00 +13°C° 0 mm 1 m/s 752 mmHg 94%
    02:00 +13°C° 0 mm 1 m/s 752 mmHg 93%
    03:00 +13°C° 0 mm 2 m/s 752 mmHg 92%
    04:00 +13°C° 0 mm 2 m/s 752 mmHg 91%
    05:00 +15°C° 0 mm 2 m/s 752 mmHg 85%
    06:00 +17°C° 0 mm 2 m/s 752 mmHg 79%
    07:00 +19°C° 0 mm 3 m/s 752 mmHg 73%
    08:00 +20°C° 0 mm 3 m/s 752 mmHg 64%
    09:00 +21°C° 0 mm 4 m/s 752 mmHg 56%
    10:00 +22°C° 0 mm 4 m/s 752 mmHg 48%
    11:00 +22°C° 0 mm 4 m/s 752 mmHg 44%
    12:00 +23°C° 0 mm 5 m/s 753 mmHg 41%
    13:00 +23°C° 0 mm 5 m/s 753 mmHg 37%
    14:00 +23°C° 0 mm 5 m/s 753 mmHg 39%
    15:00 +23°C° 0 mm 6 m/s 753 mmHg 40%
    16:00 +22°C° 0 mm 6 m/s 753 mmHg 42%
    17:00 +21°C° 0 mm 5 m/s 753 mmHg 48%
    18:00 +20°C° 0 mm 4 m/s 753 mmHg 53%
    19:00 +19°C° 0 mm 3 m/s 753 mmHg 59%
    20:00 +17°C° 0 mm 2 m/s 753 mmHg 64%
    21:00 +16°C° 0 mm 2 m/s 753 mmHg 70%
    22:00 +14°C° 0 mm 2 m/s 753 mmHg 75%
    23:00 +13°C° 0 mm 1 m/s 753 mmHg 78%

    29 Junho, Sábado

    Tempo Temperatura Precipitação Vento Pressão Humidade
    00:00 +13°C° 0 mm 1 m/s 753 mmHg 81%
    01:00 +12°C° 0 mm 1 m/s 753 mmHg 84%
    02:00 +12°C° 0 mm 1 m/s 753 mmHg 84%
    03:00 +12°C° 0 mm 2 m/s 753 mmHg 85%
    04:00 +12°C° 0 mm 2 m/s 753 mmHg 85%
    05:00 +13°C° 0 mm 3 m/s 753 mmHg 81%
    06:00 +17°C° 0 mm 3 m/s 753 mmHg 76%
    07:00 +19°C° 0 mm 3 m/s 753 mmHg 72%
    08:00 +20°C° 0 mm 4 m/s 753 mmHg 66%
    09:00 +22°C° 0 mm 4 m/s 753 mmHg 59%
    10:00 +23°C° 0 mm 4 m/s 753 mmHg 53%
    11:00 +25°C° 0 mm 4 m/s 753 mmHg 51%
    12:00 +25°C° 0 mm 4 m/s 753 mmHg 50%
    13:00 +26°C° 0 mm 4 m/s 752 mmHg 48%
    14:00 +26°C° 0 mm 4 m/s 752 mmHg 49%
    15:00 +26°C° 0 mm 4 m/s 752 mmHg 51%
    16:00 +26°C° 0 mm 4 m/s 751 mmHg 52%
    17:00 +25°C° 0 mm 3 m/s 751 mmHg 57%
    18:00 +24°C° 0 mm 3 m/s 751 mmHg 63%
    19:00 +23°C° 0 mm 2 m/s 750 mmHg 69%
    20:00 +22°C° 0 mm 1 m/s 750 mmHg 73%
    21:00 +20°C° 0 mm 1 m/s 750 mmHg 78%
    22:00 +19°C° 0 mm 1 m/s 750 mmHg 82%
    23:00 +19°C° 0 mm 1 m/s 750 mmHg 84%

    30 Junho, Domingo

    Tempo Temperatura Precipitação Vento Pressão Humidade
    00:00 +17°C° 0 mm 2 m/s 750 mmHg 86%
    01:00 +17°C° 0 mm 2 m/s 750 mmHg 88%
    02:00 +17°C° 0 mm 2 m/s 750 mmHg 87%
    03:00 +16°C° 0 mm 2 m/s 749 mmHg 86%
    04:00 +16°C° 0 mm 2 m/s 749 mmHg 85%
    05:00 +18°C° 0 mm 3 m/s 749 mmHg 78%
    06:00 +20°C° 0 mm 3 m/s 749 mmHg 71%
    07:00 +22°C° 0 mm 3 m/s 749 mmHg 63%
    08:00 +23°C° 0 mm 4 m/s 749 mmHg 58%
    09:00 +26°C° 0 mm 4 m/s 749 mmHg 53%
    10:00 +28°C° 0 mm 5 m/s 749 mmHg 48%
    11:00 +29°C° 0 mm 5 m/s 748 mmHg 47%
    12:00 +29°C° 0 mm 6 m/s 748 mmHg 46%
    13:00 +30°C° 0 mm 6 m/s 747 mmHg 44%
    14:00 +30°C° 0 mm 6 m/s 747 mmHg 45%
    15:00 +30°C° 0 mm 6 m/s 746 mmHg 46%
    16:00 +30°C° 0 mm 6 m/s 746 mmHg 47%
    17:00 +29°C° 0 mm 5 m/s 746 mmHg 52%
    18:00 +28°C° 0 mm 4 m/s 745 mmHg 58%
    19:00 +27°C° 0 mm 3 m/s 745 mmHg 63%
    20:00 +25°C° 0 mm 4 m/s 745 mmHg 66%
    21:00 +23°C° 0 mm 4 m/s 745 mmHg 69%
    22:00 +21°C° 0 mm 4 m/s 745 mmHg 71%
    23:00 +20°C° 0 mm 4 m/s 745 mmHg 72%

    1 Julho, Segunda-feira

    Tempo Temperatura Precipitação Vento Pressão Humidade
    00:00 +19°C° 0 mm 4 m/s 746 mmHg 73%
    01:00 +18°C° 0 mm 4 m/s 746 mmHg 74%
    02:00 +17°C° 0 mm 3 m/s 746 mmHg 79%
    03:00 +16°C° 0 mm 3 m/s 746 mmHg 84%
    04:00 +13°C° 0 mm 3 m/s 746 mmHg 90%
    05:00 +16°C° 0 mm 3 m/s 746 mmHg 86%
    06:00 +17°C° 0 mm 4 m/s 747 mmHg 82%
    07:00 +18°C° 0 mm 4 m/s 747 mmHg 78%
    08:00 +19°C° 0 mm 4 m/s 747 mmHg 73%
    09:00 +20°C° 0 mm 4 m/s 747 mmHg 67%
    10:00 +21°C° 0 mm 4 m/s 747 mmHg 62%
    11:00 +22°C° 0 mm 4 m/s 747 mmHg 58%
    12:00 +23°C° 0 mm 5 m/s 747 mmHg 54%
    13:00 +25°C° 0 mm 5 m/s 746 mmHg 50%
    14:00 +25°C° 0 mm 4 m/s 746 mmHg 52%
    15:00 +23°C° 0 mm 4 m/s 746 mmHg 54%
    16:00 +23°C° 0 mm 4 m/s 745 mmHg 56%
    17:00 +22°C° 0 mm 3 m/s 745 mmHg 60%
    18:00 +23°C° 0 mm 2 m/s 745 mmHg 65%
    19:00 +22°C° 0 mm 1 m/s 744 mmHg 69%
    20:00 +19°C° 0.3 mm 2 m/s 744 mmHg 76%
    21:00 +18°C° 0.3 mm 2 m/s 744 mmHg 83%
    22:00 +16°C° 0.3 mm 3 m/s 744 mmHg 90%
    23:00 +16°C° 0.2 mm 3 m/s 744 mmHg 90%
    Mostrar mais